Regional Weather Roundup
Issued by NWS

Home | Current Version | Previous Version | Graphics & Text | Print | Product List | Glossary On
Versions: 1 2 3 4 5 6 7 8 9 10 11 12 13 14 15 16 17 18 19 20 21 22 23 24 25 26 27 28 29 30 31 32 33 34 35 36 37 38 39 40 41 42 43 44 45 46 47 48 49 50
711
ASUS43 KLSX 291207
RWRMO

WEATHER SUMMARY FOR MISSOURI
NATIONAL WEATHER SERVICE SPRINGFIELD MO
700 AM CDT WED MAR 29 2017

NOTE: "FAIR" INDICATES FEW OR NO CLOUDS BELOW 12,000 FEET WITH NO
       SIGNIFICANT WEATHER AND/OR OBSTRUCTIONS TO VISIBILITY.
       CURRENT SKY AND/OR WEATHER CONDITIONS ARE NOT AVAILABLE FOR
       CHILLICOTHE AND FARMINGTON.

MOZ001>031-035>038-043-044-053-054-291300-
...NORTHERN AND WESTERN MISSOURI...

CITY           SKY/WX    TMP DP  RH WIND       PRES   REMARKS
KANSAS CTY INT DRIZZLE   49  48  97 E18G26    29.89F FOG
6HR MIN TEMP:  49; 6HR MAX TEMP:  52; 6HR PCP:  0.90;

KANSAS C DTWN  CLOUDY    50  48  93 E18G25    29.89F
6HR MIN TEMP:  50; 6HR MAX TEMP:  54; 6HR PCP:  0.80;

LEE`S SUMMIT   LGT RAIN  49  49 100 E18G29    29.88F FOG
6HR MIN TEMP:  49; 6HR MAX TEMP:  53; 6HR PCP:  0.71;

ST JOSEPH      LGT RAIN  48  48 100 E16G28    29.90F FOG
6HR MIN TEMP:  48; 6HR MAX TEMP:  52; 6HR PCP:  0.62;

CHILLICOTHE      N/A     48  47  96 E13G18    29.99F
6HR MIN TEMP:  48; 6HR MAX TEMP:  52; 6HR PCP:  0.56;

KIRKSVILLE     LGT RAIN  47  43  86 NE8       30.10R
6HR MIN TEMP:  47; 6HR MAX TEMP:  49; 6HR PCP:  0.01;


$$
MOZ066>068-077>081-088>096-101>105-291300-
...SOUTHWEST MISSOURI...

CITY           SKY/WX    TMP DP  RH WIND       PRES   REMARKS
SPRINGFIELD    PTCLDY    55  50  83 SE18      29.83F
6HR MIN TEMP:  54; 6HR MAX TEMP:  57; 6HR PCP: TRACE;

JOPLIN         MOCLDY    57  54  89 E16G26    29.72F
6HR MIN TEMP:  57; 6HR MAX TEMP:  61; 6HR PCP:  0.16;

BRANSON        CLOUDY    54  50  87 E21       29.85F

$$
MOZ032>034-039>042-045>050-055>058-069>072-291300-
...CENTRAL MISSOURI...

CITY           SKY/WX    TMP DP  RH WIND       PRES   REMARKS
COLUMBIA       TSTM      51  48  89 E17G26    29.91S
6HR MIN TEMP:  51; 6HR MAX TEMP:  52; 6HR PCP:  0.01;

JEFFERSON CITY CLOUDY    54  48  80 E20       29.93R
6HR MIN TEMP:  54; 6HR MAX TEMP:  57; 6HR PCP:  0.03;

ROLLA          CLOUDY    52  49  89 E22G30    29.91S
6HR MIN TEMP:  50; 6HR MAX TEMP:  52;

SEDALIA        RAIN      51  50  96 E13       29.94F FOG
6HR MIN TEMP:  51; 6HR MAX TEMP:  54; 6HR PCP:  0.52;

WHITEMAN AFB   LGT RAIN  50  50 100 E9        29.90F FOG
WARRENSBURG    DRIZZLE   50  48  93 NE12      29.91F
OSAGE BEACH    CLOUDY    54  48  80 E10       29.92R

$$
MOZ051-052-059>065-291300-
...EAST CENTRAL MISSOURI...

CITY           SKY/WX    TMP DP  RH WIND       PRES   REMARKS
ST LOUIS INTL  NOT AVBL
SPIRIT OF STL  CLOUDY    50  45  83 E12       29.99F
6HR MIN TEMP:  49; 6HR MAX TEMP:  54;

ST CHARLES     CLOUDY    49  45  86 E13       30.02F
6HR MIN TEMP:  48; 6HR MAX TEMP:  52;


$$
MOZ072>076-082>087-097>100-106>115-291300-
...SOUTH CENTRAL AND SOUTHEAST MISSOURI...

CITY           SKY/WX    TMP DP  RH WIND       PRES   REMARKS
CAPE GIRARDEAU PTCLDY    53  49  86 E10       29.99S
6HR MIN TEMP:  46; 6HR MAX TEMP:  54;

FARMINGTON     CLOUDY    50  48  93 E9        30.00R
6HR MIN TEMP:  49; 6HR MAX TEMP:  52;

POPLAR BLUFF   CLOUDY    56  52  86 E13       29.96S
6HR MIN TEMP:  53; 6HR MAX TEMP:  56;

WEST PLAINS    CLOUDY    54  50  86 E10       29.94R
6HR MIN TEMP:  53; 6HR MAX TEMP:  54;


$$




USA.gov is the U.S. government's official web portal to all federal, state and local government web resources and services.